Orbital Elements at Epoch 2459200.5 (2020-Dec-17.0) TDB
Reference: JPL 26 (heliocentric ecliptic J2000)
Element | Value | Uncertainty (1-sigma) | Units |
e | .1698013316748648 | 4.989e-08 | |
a | 2.379762865533566 | 1.0044e-08 | au |
q | 1.975675961895574 | 1.2313e-07 | au |
i | 3.783238900554849 | 4.9228e-06 | deg |
node | 356.6408660764996 | 5.3173e-05 | deg |
peri | 237.7933732435232 | 5.5806e-05 | deg |
M | 7.01800201857694 | 2.1127e-05 | deg |
tp | 2459174.359737768288 (2020-Nov-20.85973777) | 7.8591e-05 | TDB |
period | 1340.907907764391 3.67 | 8.4894e-06 2.324e-08 | d yr |
n | .268474813158649 | 1.6997e-09 | deg/d |
Q | 2.783849769171557 | 1.175e-08 | au |
|
| | Orbit Determination Parameters
Additional Information
|